﻿_id,日時,10分間移動積算雨量(mm),1時間移動積算雨量(mm),日雨量(mm),累計雨量(mm)
1,2022-08-08T00:00:00,0,0,4.5,79
2,2022-08-08T00:01:00,0,0,0,79
3,2022-08-08T00:02:00,0,0,0,79
4,2022-08-08T00:03:00,0,0,0,79
5,2022-08-08T00:04:00,0,0,0,79
6,2022-08-08T00:05:00,0,0,0,79
7,2022-08-08T00:06:00,0,0,0,79
8,2022-08-08T00:07:00,0,0,0,79
9,2022-08-08T00:08:00,0,0,0,79
10,2022-08-08T00:09:00,0,0,0,79
11,2022-08-08T00:10:00,0,0,0,79
12,2022-08-08T00:11:00,0,0,0,79
13,2022-08-08T00:12:00,0,0,0,79
14,2022-08-08T00:13:00,0,0,0,79
15,2022-08-08T00:14:00,0,0,0,79
16,2022-08-08T00:15:00,0,0,0,79
17,2022-08-08T00:16:00,0,0,0,79
18,2022-08-08T00:17:00,0,0,0,79
19,2022-08-08T00:18:00,0,0,0,79
20,2022-08-08T00:19:00,0,0,0,79
21,2022-08-08T00:20:00,0,0,0,79
22,2022-08-08T00:21:00,0,0,0,79
23,2022-08-08T00:22:00,0,0,0,79
24,2022-08-08T00:23:00,0,0,0,79
25,2022-08-08T00:24:00,0,0,0,79
26,2022-08-08T00:25:00,0,0,0,79
27,2022-08-08T00:26:00,0,0,0,79
28,2022-08-08T00:27:00,0,0,0,79
29,2022-08-08T00:28:00,0,0,0,79
30,2022-08-08T00:29:00,0,0,0,79
31,2022-08-08T00:30:00,0,0,0,79
32,2022-08-08T00:31:00,0,0,0,79
33,2022-08-08T00:32:00,0,0,0,79
34,2022-08-08T00:33:00,0,0,0,79
35,2022-08-08T00:34:00,0,0,0,79
36,2022-08-08T00:35:00,0,0,0,79
37,2022-08-08T00:36:00,0,0,0,79
38,2022-08-08T00:37:00,0,0,0,79
39,2022-08-08T00:38:00,0,0,0,79
40,2022-08-08T00:39:00,0,0,0,79
41,2022-08-08T00:40:00,0,0,0,79
42,2022-08-08T00:41:00,0,0,0,79
43,2022-08-08T00:42:00,0,0,0,79
44,2022-08-08T00:43:00,0,0,0,79
45,2022-08-08T00:44:00,0,0,0,79
46,2022-08-08T00:45:00,0,0,0,79
47,2022-08-08T00:46:00,0,0,0,79
48,2022-08-08T00:47:00,0,0,0,79
49,2022-08-08T00:48:00,0,0,0,79
50,2022-08-08T00:49:00,0,0,0,79
51,2022-08-08T00:50:00,0,0,0,79
52,2022-08-08T00:51:00,0,0,0,79
53,2022-08-08T00:52:00,0,0,0,79
54,2022-08-08T00:53:00,0,0,0,79
55,2022-08-08T00:54:00,0,0,0,79
56,2022-08-08T00:55:00,0,0,0,79
57,2022-08-08T00:56:00,0,0,0,79
58,2022-08-08T00:57:00,0,0,0,79
59,2022-08-08T00:58:00,0,0,0,79
60,2022-08-08T00:59:00,0,0,0,79
61,2022-08-08T01:00:00,0,0,0,79
62,2022-08-08T01:01:00,0,0,0,79
63,2022-08-08T01:02:00,0,0,0,79
64,2022-08-08T01:03:00,0,0,0,79
65,2022-08-08T01:04:00,0,0,0,79
66,2022-08-08T01:05:00,0,0,0,79
67,2022-08-08T01:06:00,0,0,0,79
68,2022-08-08T01:07:00,0,0,0,79
69,2022-08-08T01:08:00,0,0,0,79
70,2022-08-08T01:09:00,0,0,0,79
71,2022-08-08T01:10:00,0,0,0,79
72,2022-08-08T01:11:00,0,0,0,79
73,2022-08-08T01:12:00,0,0,0,79
74,2022-08-08T01:13:00,0,0,0,79
75,2022-08-08T01:14:00,0,0,0,79
76,2022-08-08T01:15:00,0,0,0,79
77,2022-08-08T01:16:00,0,0,0,79
78,2022-08-08T01:17:00,0,0,0,79
79,2022-08-08T01:18:00,0,0,0,79
80,2022-08-08T01:19:00,0,0,0,79
81,2022-08-08T01:20:00,0,0,0,79
82,2022-08-08T01:21:00,0,0,0,79
83,2022-08-08T01:22:00,0,0,0,79
84,2022-08-08T01:23:00,0,0,0,79
85,2022-08-08T01:24:00,0,0,0,79
86,2022-08-08T01:25:00,0,0,0,79
87,2022-08-08T01:26:00,0,0,0,79
88,2022-08-08T01:27:00,0,0,0,79
89,2022-08-08T01:28:00,0,0,0,79
90,2022-08-08T01:29:00,0,0,0,79
91,2022-08-08T01:30:00,0,0,0,79
92,2022-08-08T01:31:00,0,0,0,79
93,2022-08-08T01:32:00,0,0,0,79
94,2022-08-08T01:33:00,0,0,0,79
95,2022-08-08T01:34:00,0,0,0,79
96,2022-08-08T01:35:00,0,0,0,79
97,2022-08-08T01:36:00,0,0,0,79
98,2022-08-08T01:37:00,0,0,0,79
99,2022-08-08T01:38:00,0,0,0,79
100,2022-08-08T01:39:00,0,0,0,79
101,2022-08-08T01:40:00,0,0,0,79
102,2022-08-08T01:41:00,0,0,0,79
103,2022-08-08T01:42:00,0,0,0,79
104,2022-08-08T01:43:00,0,0,0,79
105,2022-08-08T01:44:00,0,0,0,79
106,2022-08-08T01:45:00,0,0,0,79
107,2022-08-08T01:46:00,0,0,0,79
108,2022-08-08T01:47:00,0,0,0,79
109,2022-08-08T01:48:00,0,0,0,79
110,2022-08-08T01:49:00,0,0,0,79
111,2022-08-08T01:50:00,0,0,0,79
112,2022-08-08T01:51:00,0,0,0,79
113,2022-08-08T01:52:00,0,0,0,79
114,2022-08-08T01:53:00,0,0,0,79
115,2022-08-08T01:54:00,0,0,0,79
116,2022-08-08T01:55:00,0,0,0,79
117,2022-08-08T01:56:00,0,0,0,79
118,2022-08-08T01:57:00,0,0,0,79
119,2022-08-08T01:58:00,0,0,0,79
120,2022-08-08T01:59:00,0,0,0,79
121,2022-08-08T02:00:00,0,0,0,79
122,2022-08-08T02:01:00,0,0,0,79
123,2022-08-08T02:02:00,0,0,0,79
124,2022-08-08T02:03:00,0,0,0,79
125,2022-08-08T02:04:00,0,0,0,79
126,2022-08-08T02:05:00,0,0,0,79
127,2022-08-08T02:06:00,0,0,0,79
128,2022-08-08T02:07:00,0,0,0,79
129,2022-08-08T02:08:00,0,0,0,79
130,2022-08-08T02:09:00,0,0,0,79
131,2022-08-08T02:10:00,0,0,0,79
132,2022-08-08T02:11:00,0,0,0,79
133,2022-08-08T02:12:00,0,0,0,79
134,2022-08-08T02:13:00,0,0,0,79
135,2022-08-08T02:14:00,0,0,0,79
136,2022-08-08T02:15:00,0,0,0,79
137,2022-08-08T02:16:00,0,0,0,79
138,2022-08-08T02:17:00,0,0,0,79
139,2022-08-08T02:18:00,0,0,0,79
140,2022-08-08T02:19:00,0,0,0,79
141,2022-08-08T02:20:00,0,0,0,79
142,2022-08-08T02:21:00,0,0,0,79
143,2022-08-08T02:22:00,0,0,0,79
144,2022-08-08T02:23:00,0,0,0,79
145,2022-08-08T02:24:00,0,0,0,79
146,2022-08-08T02:25:00,0,0,0,79
147,2022-08-08T02:26:00,0,0,0,79
148,2022-08-08T02:27:00,0,0,0,79
149,2022-08-08T02:28:00,0,0,0,79
150,2022-08-08T02:29:00,0,0,0,79
151,2022-08-08T02:30:00,0,0,0,79
152,2022-08-08T02:31:00,0,0,0,79
153,2022-08-08T02:32:00,0,0,0,79
154,2022-08-08T02:33:00,0,0,0,79
155,2022-08-08T02:34:00,0,0,0,79
156,2022-08-08T02:35:00,0,0,0,79
157,2022-08-08T02:36:00,0,0,0,79
158,2022-08-08T02:37:00,0,0,0,79
159,2022-08-08T02:38:00,0,0,0,79
160,2022-08-08T02:39:00,0,0,0,79
161,2022-08-08T02:40:00,0,0,0,79
162,2022-08-08T02:41:00,0,0,0,79
163,2022-08-08T02:42:00,0,0,0,79
164,2022-08-08T02:43:00,0,0,0,79
165,2022-08-08T02:44:00,0,0,0,79
166,2022-08-08T02:45:00,0,0,0,79
167,2022-08-08T02:46:00,0,0,0,79
168,2022-08-08T02:47:00,0,0,0,79
169,2022-08-08T02:48:00,0,0,0,79
170,2022-08-08T02:49:00,0,0,0,79
171,2022-08-08T02:50:00,0,0,0,79
172,2022-08-08T02:51:00,0,0,0,79
173,2022-08-08T02:52:00,0,0,0,79
174,2022-08-08T02:53:00,0,0,0,79
175,2022-08-08T02:54:00,0,0,0,79
176,2022-08-08T02:55:00,0,0,0,79
177,2022-08-08T02:56:00,0,0,0,79
178,2022-08-08T02:57:00,0,0,0,79
179,2022-08-08T02:58:00,0,0,0,79
180,2022-08-08T02:59:00,0,0,0,79
181,2022-08-08T03:00:00,0,0,0,79
182,2022-08-08T03:01:00,0,0,0,79
183,2022-08-08T03:02:00,0,0,0,79
184,2022-08-08T03:03:00,0,0,0,79
185,2022-08-08T03:04:00,0,0,0,79
186,2022-08-08T03:05:00,0,0,0,79
187,2022-08-08T03:06:00,0,0,0,79
188,2022-08-08T03:07:00,0,0,0,79
189,2022-08-08T03:08:00,0,0,0,79
190,2022-08-08T03:09:00,0,0,0,79
191,2022-08-08T03:10:00,0,0,0,79
192,2022-08-08T03:11:00,0,0,0,79
193,2022-08-08T03:12:00,0,0,0,79
194,2022-08-08T03:13:00,0,0,0,79
195,2022-08-08T03:14:00,0,0,0,79
196,2022-08-08T03:15:00,0,0,0,79
197,2022-08-08T03:16:00,0,0,0,79
198,2022-08-08T03:17:00,0,0,0,79
199,2022-08-08T03:18:00,0,0,0,79
200,2022-08-08T03:19:00,0,0,0,79
201,2022-08-08T03:20:00,0,0,0,79
202,2022-08-08T03:21:00,0,0,0,79
203,2022-08-08T03:22:00,0,0,0,79
204,2022-08-08T03:23:00,0,0,0,79
205,2022-08-08T03:24:00,0,0,0,79
206,2022-08-08T03:25:00,0,0,0,79
207,2022-08-08T03:26:00,0,0,0,79
208,2022-08-08T03:27:00,0,0,0,79
209,2022-08-08T03:28:00,0,0,0,79
210,2022-08-08T03:29:00,0,0,0,79
211,2022-08-08T03:30:00,0,0,0,79
212,2022-08-08T03:31:00,0,0,0,79
213,2022-08-08T03:32:00,0,0,0,79
214,2022-08-08T03:33:00,0,0,0,79
215,2022-08-08T03:34:00,0,0,0,79
216,2022-08-08T03:35:00,0,0,0,79
217,2022-08-08T03:36:00,0,0,0,79
218,2022-08-08T03:37:00,0,0,0,79
219,2022-08-08T03:38:00,0,0,0,79
220,2022-08-08T03:39:00,0,0,0,79
221,2022-08-08T03:40:00,0,0,0,79
222,2022-08-08T03:41:00,0,0,0,79
223,2022-08-08T03:42:00,0,0,0,79
224,2022-08-08T03:43:00,0,0,0,79
225,2022-08-08T03:44:00,0,0,0,79
226,2022-08-08T03:45:00,0,0,0,79
227,2022-08-08T03:46:00,0,0,0,79
228,2022-08-08T03:47:00,0,0,0,79
229,2022-08-08T03:48:00,0,0,0,79
230,2022-08-08T03:49:00,0,0,0,79
231,2022-08-08T03:50:00,0,0,0,79
232,2022-08-08T03:51:00,0,0,0,79
233,2022-08-08T03:52:00,0,0,0,79
234,2022-08-08T03:53:00,0,0,0,79
235,2022-08-08T03:54:00,0,0,0,79
236,2022-08-08T03:55:00,0,0,0,79
237,2022-08-08T03:56:00,0,0,0,79
238,2022-08-08T03:57:00,0,0,0,79
239,2022-08-08T03:58:00,0,0,0,79
240,2022-08-08T03:59:00,0,0,0,79
241,2022-08-08T04:00:00,0,0,0,79
242,2022-08-08T04:01:00,0,0,0,79
243,2022-08-08T04:02:00,0,0,0,79
244,2022-08-08T04:03:00,0,0,0,79
245,2022-08-08T04:04:00,0,0,0,79
246,2022-08-08T04:05:00,0,0,0,79
247,2022-08-08T04:06:00,0,0,0,79
248,2022-08-08T04:07:00,0,0,0,79
249,2022-08-08T04:08:00,0,0,0,79
250,2022-08-08T04:09:00,0,0,0,79
251,2022-08-08T04:10:00,0,0,0,79
252,2022-08-08T04:11:00,0,0,0,79
253,2022-08-08T04:12:00,0,0,0,79
254,2022-08-08T04:13:00,0,0,0,79
255,2022-08-08T04:14:00,0,0,0,79
256,2022-08-08T04:15:00,0,0,0,79
257,2022-08-08T04:16:00,0,0,0,79
258,2022-08-08T04:17:00,0,0,0,79
259,2022-08-08T04:18:00,0,0,0,79
260,2022-08-08T04:19:00,0,0,0,79
261,2022-08-08T04:20:00,0,0,0,79
262,2022-08-08T04:21:00,0,0,0,79
263,2022-08-08T04:22:00,0,0,0,79
264,2022-08-08T04:23:00,0,0,0,79
265,2022-08-08T04:24:00,0,0,0,79
266,2022-08-08T04:25:00,0,0,0,79
267,2022-08-08T04:26:00,0,0,0,79
268,2022-08-08T04:27:00,0,0,0,79
269,2022-08-08T04:28:00,0,0,0,79
270,2022-08-08T04:29:00,0,0,0,79
271,2022-08-08T04:30:00,0,0,0,79
272,2022-08-08T04:31:00,0,0,0,79
273,2022-08-08T04:32:00,0,0,0,79
274,2022-08-08T04:33:00,0,0,0,79
275,2022-08-08T04:34:00,0,0,0,79
276,2022-08-08T04:35:00,0,0,0,79
277,2022-08-08T04:36:00,0,0,0,79
278,2022-08-08T04:37:00,0,0,0,79
279,2022-08-08T04:38:00,0,0,0,79
280,2022-08-08T04:39:00,0,0,0,79
281,2022-08-08T04:40:00,0,0,0,79
282,2022-08-08T04:41:00,0,0,0,79
283,2022-08-08T04:42:00,0,0,0,79
284,2022-08-08T04:43:00,0,0,0,79
285,2022-08-08T04:44:00,0,0,0,79
286,2022-08-08T04:45:00,0,0,0,79
287,2022-08-08T04:46:00,0,0,0,79
288,2022-08-08T04:47:00,0,0,0,79
289,2022-08-08T04:48:00,0,0,0,79
290,2022-08-08T04:49:00,0,0,0,79
291,2022-08-08T04:50:00,0,0,0,79
292,2022-08-08T04:51:00,0,0,0,79
293,2022-08-08T04:52:00,0,0,0,79
294,2022-08-08T04:53:00,0,0,0,79
295,2022-08-08T04:54:00,0,0,0,79
296,2022-08-08T04:55:00,0,0,0,79
297,2022-08-08T04:56:00,0,0,0,79
298,2022-08-08T04:57:00,0,0,0,79
299,2022-08-08T04:58:00,0,0,0,79
300,2022-08-08T04:59:00,0,0,0,79
301,2022-08-08T05:00:00,0,0,0,79
302,2022-08-08T05:01:00,0,0,0,79
303,2022-08-08T05:02:00,0,0,0,79
304,2022-08-08T05:03:00,0,0,0,79
305,2022-08-08T05:04:00,0,0,0,79
306,2022-08-08T05:05:00,0,0,0,79
307,2022-08-08T05:06:00,0,0,0,79
308,2022-08-08T05:07:00,0,0,0,79
309,2022-08-08T05:08:00,0,0,0,79
310,2022-08-08T05:09:00,0,0,0,79
311,2022-08-08T05:10:00,0,0,0,79
312,2022-08-08T05:11:00,0,0,0,79
313,2022-08-08T05:12:00,0,0,0,79
314,2022-08-08T05:13:00,0,0,0,79
315,2022-08-08T05:14:00,0,0,0,79
316,2022-08-08T05:15:00,0,0,0,79
317,2022-08-08T05:16:00,0,0,0,79
318,2022-08-08T05:17:00,0,0,0,79
319,2022-08-08T05:18:00,0,0,0,79
320,2022-08-08T05:19:00,0,0,0,79
321,2022-08-08T05:20:00,0,0,0,79
322,2022-08-08T05:21:00,0,0,0,79
323,2022-08-08T05:22:00,0,0,0,79
324,2022-08-08T05:23:00,0,0,0,79
325,2022-08-08T05:24:00,0,0,0,79
326,2022-08-08T05:25:00,0,0,0,79
327,2022-08-08T05:26:00,0,0,0,79
328,2022-08-08T05:27:00,0,0,0,79
329,2022-08-08T05:28:00,0,0,0,79
330,2022-08-08T05:29:00,0,0,0,79
331,2022-08-08T05:30:00,0,0,0,79
332,2022-08-08T05:31:00,0,0,0,79
333,2022-08-08T05:32:00,0,0,0,79
334,2022-08-08T05:33:00,0,0,0,79
335,2022-08-08T05:34:00,0,0,0,79
336,2022-08-08T05:35:00,0,0,0,79
337,2022-08-08T05:36:00,0,0,0,79
338,2022-08-08T05:37:00,0,0,0,79
339,2022-08-08T05:38:00,0,0,0,79
340,2022-08-08T05:39:00,0,0,0,79
341,2022-08-08T05:40:00,0,0,0,79
342,2022-08-08T05:41:00,0,0,0,79
343,2022-08-08T05:42:00,0,0,0,79
344,2022-08-08T05:43:00,0,0,0,79
345,2022-08-08T05:44:00,0,0,0,79
346,2022-08-08T05:45:00,0,0,0,79
347,2022-08-08T05:46:00,0,0,0,79
348,2022-08-08T05:47:00,0,0,0,79
349,2022-08-08T05:48:00,0,0,0,79
350,2022-08-08T05:49:00,0,0,0,79
351,2022-08-08T05:50:00,0,0,0,79
352,2022-08-08T05:51:00,0,0,0,79
353,2022-08-08T05:52:00,0,0,0,79
354,2022-08-08T05:53:00,0,0,0,79
355,2022-08-08T05:54:00,0,0,0,79
356,2022-08-08T05:55:00,0,0,0,79
357,2022-08-08T05:56:00,0,0,0,79
358,2022-08-08T05:57:00,0,0,0,79
359,2022-08-08T05:58:00,0,0,0,79
360,2022-08-08T05:59:00,0,0,0,79
361,2022-08-08T06:00:00,0,0,0,79
362,2022-08-08T06:01:00,0,0,0,79
363,2022-08-08T06:02:00,0,0,0,79
364,2022-08-08T06:03:00,0,0,0,79
365,2022-08-08T06:04:00,0,0,0,79
366,2022-08-08T06:05:00,0,0,0,79
367,2022-08-08T06:06:00,0,0,0,79
368,2022-08-08T06:07:00,0,0,0,79
369,2022-08-08T06:08:00,0,0,0,79
370,2022-08-08T06:09:00,0,0,0,79
371,2022-08-08T06:10:00,0,0,0,79
372,2022-08-08T06:11:00,0,0,0,79
373,2022-08-08T06:12:00,0,0,0,79
374,2022-08-08T06:13:00,0,0,0,79
375,2022-08-08T06:14:00,0,0,0,79
376,2022-08-08T06:15:00,0,0,0,79
377,2022-08-08T06:16:00,0,0,0,79
378,2022-08-08T06:17:00,0,0,0,79
379,2022-08-08T06:18:00,0,0,0,79
380,2022-08-08T06:19:00,0,0,0,79
381,2022-08-08T06:20:00,0,0,0,79
382,2022-08-08T06:21:00,0,0,0,79
383,2022-08-08T06:22:00,0,0,0,79
384,2022-08-08T06:23:00,0,0,0,79
385,2022-08-08T06:24:00,0,0,0,79
386,2022-08-08T06:25:00,0,0,0,79
387,2022-08-08T06:26:00,0,0,0,79
388,2022-08-08T06:27:00,0,0,0,79
389,2022-08-08T06:28:00,0,0,0,79
390,2022-08-08T06:29:00,0,0,0,79
391,2022-08-08T06:30:00,0,0,0,79
392,2022-08-08T06:31:00,0,0,0,79
393,2022-08-08T06:32:00,0,0,0,79
394,2022-08-08T06:33:00,0,0,0,79
395,2022-08-08T06:34:00,0,0,0,79
396,2022-08-08T06:35:00,0,0,0,79
397,2022-08-08T06:36:00,0,0,0,79
398,2022-08-08T06:37:00,0,0,0,79
399,2022-08-08T06:38:00,0,0,0,79
400,2022-08-08T06:39:00,0,0,0,79
401,2022-08-08T06:40:00,0,0,0,79
402,2022-08-08T06:41:00,0,0,0,79
403,2022-08-08T06:42:00,0,0,0,79
404,2022-08-08T06:43:00,0,0,0,79
405,2022-08-08T06:44:00,0,0,0,79
406,2022-08-08T06:45:00,0,0,0,79
407,2022-08-08T06:46:00,0,0,0,79
408,2022-08-08T06:47:00,0,0,0,79
409,2022-08-08T06:48:00,0,0,0,79
410,2022-08-08T06:49:00,0,0,0,79
411,2022-08-08T06:50:00,0,0,0,79
412,2022-08-08T06:51:00,0,0,0,79
413,2022-08-08T06:52:00,0,0,0,79
414,2022-08-08T06:53:00,0,0,0,79
415,2022-08-08T06:54:00,0,0,0,79
416,2022-08-08T06:55:00,0,0,0,79
417,2022-08-08T06:56:00,0,0,0,79
418,2022-08-08T06:57:00,0,0,0,79
419,2022-08-08T06:58:00,0,0,0,79
420,2022-08-08T06:59:00,0,0,0,79
421,2022-08-08T07:00:00,0,0,0,79
422,2022-08-08T07:01:00,0,0,0,79
423,2022-08-08T07:02:00,0,0,0,79
424,2022-08-08T07:03:00,0,0,0,79
425,2022-08-08T07:04:00,0,0,0,79
426,2022-08-08T07:05:00,0,0,0,79
427,2022-08-08T07:06:00,0,0,0,79
428,2022-08-08T07:07:00,0,0,0,79
429,2022-08-08T07:08:00,0,0,0,79
430,2022-08-08T07:09:00,0,0,0,79
431,2022-08-08T07:10:00,0,0,0,79
432,2022-08-08T07:11:00,0,0,0,79
433,2022-08-08T07:12:00,0,0,0,79
434,2022-08-08T07:13:00,0,0,0,79
435,2022-08-08T07:14:00,0,0,0,79
436,2022-08-08T07:15:00,0,0,0,79
437,2022-08-08T07:16:00,0,0,0,79
438,2022-08-08T07:17:00,0,0,0,79
439,2022-08-08T07:18:00,0,0,0,79
440,2022-08-08T07:19:00,0,0,0,79
441,2022-08-08T07:20:00,0,0,0,79
442,2022-08-08T07:21:00,0,0,0,79
443,2022-08-08T07:22:00,0,0,0,79
444,2022-08-08T07:23:00,0,0,0,79
445,2022-08-08T07:24:00,0,0,0,79
446,2022-08-08T07:25:00,0,0,0,79
447,2022-08-08T07:26:00,0,0,0,79
448,2022-08-08T07:27:00,0,0,0,79
449,2022-08-08T07:28:00,0,0,0,79
450,2022-08-08T07:29:00,0,0,0,79
451,2022-08-08T07:30:00,0,0,0,79
452,2022-08-08T07:31:00,0,0,0,79
453,2022-08-08T07:32:00,0,0,0,79
454,2022-08-08T07:33:00,0,0,0,79
455,2022-08-08T07:34:00,0,0,0,79
456,2022-08-08T07:35:00,0,0,0,79
457,2022-08-08T07:36:00,0,0,0,79
458,2022-08-08T07:37:00,0,0,0,79
459,2022-08-08T07:38:00,0,0,0,79
460,2022-08-08T07:39:00,0,0,0,79
461,2022-08-08T07:40:00,0,0,0,79
462,2022-08-08T07:41:00,0,0,0,79
463,2022-08-08T07:42:00,0,0,0,79
464,2022-08-08T07:43:00,0,0,0,79
465,2022-08-08T07:44:00,0,0,0,79
466,2022-08-08T07:45:00,0,0,0,79
467,2022-08-08T07:46:00,0,0,0,79
468,2022-08-08T07:47:00,0,0,0,79
469,2022-08-08T07:48:00,0,0,0,79
470,2022-08-08T07:49:00,0,0,0,79
471,2022-08-08T07:50:00,0,0,0,79
472,2022-08-08T07:51:00,0,0,0,79
473,2022-08-08T07:52:00,0,0,0,79
474,2022-08-08T07:53:00,0,0,0,79
475,2022-08-08T07:54:00,0,0,0,79
476,2022-08-08T07:55:00,0,0,0,79
477,2022-08-08T07:56:00,0,0,0,79
478,2022-08-08T07:57:00,0,0,0,79
479,2022-08-08T07:58:00,0,0,0,79
480,2022-08-08T07:59:00,0,0,0,79
481,2022-08-08T08:00:00,0,0,0,79
482,2022-08-08T08:01:00,0,0,0,79
483,2022-08-08T08:02:00,0,0,0,79
484,2022-08-08T08:03:00,0,0,0,79
485,2022-08-08T08:04:00,0,0,0,79
486,2022-08-08T08:05:00,0,0,0,79
487,2022-08-08T08:06:00,0,0,0,79
488,2022-08-08T08:07:00,0,0,0,79
489,2022-08-08T08:08:00,0,0,0,79
490,2022-08-08T08:09:00,0,0,0,79
491,2022-08-08T08:10:00,0,0,0,79
492,2022-08-08T08:11:00,0,0,0,79
493,2022-08-08T08:12:00,0,0,0,79
494,2022-08-08T08:13:00,0,0,0,79
495,2022-08-08T08:14:00,0,0,0,79
496,2022-08-08T08:15:00,0,0,0,79
497,2022-08-08T08:16:00,0,0,0,79
498,2022-08-08T08:17:00,0,0,0,79
499,2022-08-08T08:18:00,0,0,0,79
500,2022-08-08T08:19:00,0,0,0,79
501,2022-08-08T08:20:00,0,0,0,79
502,2022-08-08T08:21:00,0,0,0,79
503,2022-08-08T08:22:00,0,0,0,79
504,2022-08-08T08:23:00,0,0,0,79
505,2022-08-08T08:24:00,0,0,0,79
506,2022-08-08T08:25:00,0,0,0,79
507,2022-08-08T08:26:00,0,0,0,79
508,2022-08-08T08:27:00,0,0,0,79
509,2022-08-08T08:28:00,0,0,0,79
510,2022-08-08T08:29:00,0,0,0,79
511,2022-08-08T08:30:00,0,0,0,79
512,2022-08-08T08:31:00,0,0,0,79
513,2022-08-08T08:32:00,0,0,0,79
514,2022-08-08T08:33:00,0,0,0,79
515,2022-08-08T08:34:00,0,0,0,79
516,2022-08-08T08:35:00,0,0,0,79
517,2022-08-08T08:36:00,0,0,0,79
518,2022-08-08T08:37:00,0,0,0,79
519,2022-08-08T08:38:00,0,0,0,79
520,2022-08-08T08:39:00,0,0,0,79
521,2022-08-08T08:40:00,0,0,0,79
522,2022-08-08T08:41:00,0,0,0,79
523,2022-08-08T08:42:00,0,0,0,79
524,2022-08-08T08:43:00,0,0,0,79
525,2022-08-08T08:44:00,0,0,0,79
526,2022-08-08T08:45:00,0,0,0,79
527,2022-08-08T08:46:00,0,0,0,79
528,2022-08-08T08:47:00,0,0,0,79
529,2022-08-08T08:48:00,0,0,0,79
530,2022-08-08T08:49:00,0,0,0,79
531,2022-08-08T08:50:00,0,0,0,79
532,2022-08-08T08:51:00,0,0,0,79
533,2022-08-08T08:52:00,0,0,0,79
534,2022-08-08T08:53:00,0,0,0,79
535,2022-08-08T08:54:00,0,0,0,79
536,2022-08-08T08:55:00,0,0,0,79
537,2022-08-08T08:56:00,0,0,0,79
538,2022-08-08T08:57:00,0,0,0,79
539,2022-08-08T08:58:00,0,0,0,79
540,2022-08-08T08:59:00,0,0,0,79
541,2022-08-08T09:00:00,0,0,0,79
542,2022-08-08T09:01:00,0,0,0,79
543,2022-08-08T09:02:00,0,0,0,79
544,2022-08-08T09:03:00,0,0,0,79
545,2022-08-08T09:04:00,0,0,0,79
546,2022-08-08T09:05:00,0,0,0,79
547,2022-08-08T09:06:00,0,0,0,79
548,2022-08-08T09:07:00,0,0,0,79
549,2022-08-08T09:08:00,0,0,0,79
550,2022-08-08T09:09:00,0,0,0,79
551,2022-08-08T09:10:00,0,0,0,79
552,2022-08-08T09:11:00,0,0,0,79
553,2022-08-08T09:12:00,0,0,0,79
554,2022-08-08T09:13:00,0,0,0,79
555,2022-08-08T09:14:00,0,0,0,79
556,2022-08-08T09:15:00,0,0,0,79
557,2022-08-08T09:16:00,0,0,0,79
558,2022-08-08T09:17:00,0,0,0,79
559,2022-08-08T09:18:00,0,0,0,79
560,2022-08-08T09:19:00,0,0,0,79
561,2022-08-08T09:20:00,0,0,0,79
562,2022-08-08T09:21:00,0,0,0,79
563,2022-08-08T09:22:00,0,0,0,79
564,2022-08-08T09:23:00,0,0,0,79
565,2022-08-08T09:24:00,0,0,0,79
566,2022-08-08T09:25:00,0,0,0,79
567,2022-08-08T09:26:00,0,0,0,79
568,2022-08-08T09:27:00,0,0,0,79
569,2022-08-08T09:28:00,0,0,0,79
570,2022-08-08T09:29:00,0,0,0,79
571,2022-08-08T09:30:00,0,0,0,79
572,2022-08-08T09:31:00,0,0,0,79
573,2022-08-08T09:32:00,0,0,0,79
574,2022-08-08T09:33:00,0,0,0,79
575,2022-08-08T09:34:00,0,0,0,79
576,2022-08-08T09:35:00,0,0,0,79
577,2022-08-08T09:36:00,0,0,0,79
578,2022-08-08T09:37:00,0,0,0,79
579,2022-08-08T09:38:00,0,0,0,79
580,2022-08-08T09:39:00,0,0,0,79
581,2022-08-08T09:40:00,0,0,0,79
582,2022-08-08T09:41:00,0,0,0,79
583,2022-08-08T09:42:00,0,0,0,79
584,2022-08-08T09:43:00,0,0,0,79
585,2022-08-08T09:44:00,0,0,0,79
586,2022-08-08T09:45:00,0,0,0,79
587,2022-08-08T09:46:00,0,0,0,79
588,2022-08-08T09:47:00,0,0,0,79
589,2022-08-08T09:48:00,0,0,0,79
590,2022-08-08T09:49:00,0,0,0,79
591,2022-08-08T09:50:00,0,0,0,79
592,2022-08-08T09:51:00,0,0,0,79
593,2022-08-08T09:52:00,0,0,0,79
594,2022-08-08T09:53:00,0,0,0,79
595,2022-08-08T09:54:00,0,0,0,79
596,2022-08-08T09:55:00,0,0,0,79
597,2022-08-08T09:56:00,0,0,0,79
598,2022-08-08T09:57:00,0,0,0,79
599,2022-08-08T09:58:00,0,0,0,79
600,2022-08-08T09:59:00,0,0,0,79
601,2022-08-08T10:00:00,0,0,0,79
602,2022-08-08T10:01:00,0,0,0,79
603,2022-08-08T10:02:00,0,0,0,79
604,2022-08-08T10:03:00,0,0,0,79
605,2022-08-08T10:04:00,0,0,0,79
606,2022-08-08T10:05:00,0,0,0,79
607,2022-08-08T10:06:00,0,0,0,79
608,2022-08-08T10:07:00,0,0,0,79
609,2022-08-08T10:08:00,0,0,0,79
610,2022-08-08T10:09:00,0,0,0,79
611,2022-08-08T10:10:00,0,0,0,79
612,2022-08-08T10:11:00,0,0,0,79
613,2022-08-08T10:12:00,0,0,0,79
614,2022-08-08T10:13:00,0,0,0,79
615,2022-08-08T10:14:00,0,0,0,79
616,2022-08-08T10:15:00,0,0,0,79
617,2022-08-08T10:16:00,0,0,0,79
618,2022-08-08T10:17:00,0,0,0,79
619,2022-08-08T10:18:00,0,0,0,79
620,2022-08-08T10:19:00,0,0,0,79
621,2022-08-08T10:20:00,0,0,0,79
622,2022-08-08T10:21:00,0,0,0,79
623,2022-08-08T10:22:00,0,0,0,79
624,2022-08-08T10:23:00,0,0,0,79
625,2022-08-08T10:24:00,0,0,0,79
626,2022-08-08T10:25:00,0,0,0,79
627,2022-08-08T10:26:00,0,0,0,79
628,2022-08-08T10:27:00,0,0,0,79
629,2022-08-08T10:28:00,0,0,0,79
630,2022-08-08T10:29:00,0,0,0,79
631,2022-08-08T10:30:00,0,0,0,79
632,2022-08-08T10:31:00,0,0,0,79
633,2022-08-08T10:32:00,0,0,0,79
634,2022-08-08T10:33:00,0,0,0,79
635,2022-08-08T10:34:00,0,0,0,79
636,2022-08-08T10:35:00,0,0,0,79
637,2022-08-08T10:36:00,0,0,0,79
638,2022-08-08T10:37:00,0,0,0,79
639,2022-08-08T10:38:00,0,0,0,79
640,2022-08-08T10:39:00,0,0,0,79
641,2022-08-08T10:40:00,0,0,0,79
642,2022-08-08T10:41:00,0,0,0,79
643,2022-08-08T10:42:00,0.5,0.5,0.5,79.5
644,2022-08-08T10:43:00,0.5,0.5,0.5,79.5
645,2022-08-08T10:44:00,0.5,0.5,0.5,79.5
646,2022-08-08T10:45:00,0.5,0.5,0.5,79.5
647,2022-08-08T10:46:00,0.5,0.5,0.5,79.5
648,2022-08-08T10:47:00,0.5,0.5,0.5,79.5
649,2022-08-08T10:48:00,0.5,0.5,0.5,79.5
650,2022-08-08T10:49:00,1.5,1.5,1.5,80.5
651,2022-08-08T10:50:00,2,2,2,81
652,2022-08-08T10:51:00,3,3,3,82
653,2022-08-08T10:52:00,3.5,4,4,83
654,2022-08-08T10:53:00,4,4.5,4.5,83.5
655,2022-08-08T10:54:00,6,6.5,6.5,85.5
656,2022-08-08T10:55:00,7.5,8,8,87
657,2022-08-08T10:56:00,7.5,8,8,87
658,2022-08-08T10:57:00,7.5,8,8,87
659,2022-08-08T10:58:00,7.5,8,8,87
660,2022-08-08T10:59:00,6.5,8,8,87
661,2022-08-08T11:00:00,6,8,8,87
662,2022-08-08T11:01:00,5.5,8.5,8.5,87.5
663,2022-08-08T11:02:00,4.5,8.5,8.5,87.5
664,2022-08-08T11:03:00,4,8.5,8.5,87.5
665,2022-08-08T11:04:00,2,8.5,8.5,87.5
666,2022-08-08T11:05:00,0.5,8.5,8.5,87.5
667,2022-08-08T11:06:00,0.5,8.5,8.5,87.5
668,2022-08-08T11:07:00,0.5,8.5,8.5,87.5
669,2022-08-08T11:08:00,0.5,8.5,8.5,87.5
670,2022-08-08T11:09:00,0.5,8.5,8.5,87.5
671,2022-08-08T11:10:00,0.5,8.5,8.5,87.5
672,2022-08-08T11:11:00,0,8.5,8.5,87.5
673,2022-08-08T11:12:00,0,8.5,8.5,87.5
674,2022-08-08T11:13:00,0,8.5,8.5,87.5
675,2022-08-08T11:14:00,0,8.5,8.5,87.5
676,2022-08-08T11:15:00,0,8.5,8.5,87.5
677,2022-08-08T11:16:00,0,8.5,8.5,87.5
678,2022-08-08T11:17:00,0,8.5,8.5,87.5
679,2022-08-08T11:18:00,0,8.5,8.5,87.5
680,2022-08-08T11:19:00,0,8.5,8.5,87.5
681,2022-08-08T11:20:00,0,8.5,8.5,87.5
682,2022-08-08T11:21:00,0,8.5,8.5,87.5
683,2022-08-08T11:22:00,0,8.5,8.5,87.5
684,2022-08-08T11:23:00,0,8.5,8.5,87.5
685,2022-08-08T11:24:00,0,8.5,8.5,87.5
686,2022-08-08T11:25:00,0,8.5,8.5,87.5
687,2022-08-08T11:26:00,0,8.5,8.5,87.5
688,2022-08-08T11:27:00,0,8.5,8.5,87.5
689,2022-08-08T11:28:00,0,8.5,8.5,87.5
690,2022-08-08T11:29:00,0,8.5,8.5,87.5
691,2022-08-08T11:30:00,0,8.5,8.5,87.5
692,2022-08-08T11:31:00,0,8.5,8.5,87.5
693,2022-08-08T11:32:00,0,8.5,8.5,87.5
694,2022-08-08T11:33:00,0,8.5,8.5,87.5
695,2022-08-08T11:34:00,0,8.5,8.5,87.5
696,2022-08-08T11:35:00,0,8.5,8.5,87.5
697,2022-08-08T11:36:00,0,8.5,8.5,87.5
698,2022-08-08T11:37:00,0,8.5,8.5,87.5
699,2022-08-08T11:38:00,0,8.5,8.5,87.5
700,2022-08-08T11:39:00,0,8.5,8.5,87.5
701,2022-08-08T11:40:00,0,8.5,8.5,87.5
702,2022-08-08T11:41:00,0,8.5,8.5,87.5
703,2022-08-08T11:42:00,0,8,8.5,87.5
704,2022-08-08T11:43:00,0,8,8.5,87.5
705,2022-08-08T11:44:00,0,8,8.5,87.5
706,2022-08-08T11:45:00,0,8,8.5,87.5
707,2022-08-08T11:46:00,0,8,8.5,87.5
708,2022-08-08T11:47:00,0,8,8.5,87.5
709,2022-08-08T11:48:00,0,8,8.5,87.5
710,2022-08-08T11:49:00,0,7,8.5,87.5
711,2022-08-08T11:50:00,0,6.5,8.5,87.5
712,2022-08-08T11:51:00,0,5.5,8.5,87.5
713,2022-08-08T11:52:00,0,4.5,8.5,87.5
714,2022-08-08T11:53:00,0,4,8.5,87.5
715,2022-08-08T11:54:00,0,2,8.5,87.5
716,2022-08-08T11:55:00,0,0.5,8.5,87.5